Time,TemperatureF,DewpointF,PressureIn,WindDirection,WindDirectionDegrees,WindSpeedMPH,WindSpeedGustMPH,Humidity,HourlyPrecipIn,Conditions,Clouds,dailyrainin,SolarRadiationWatts/m^2,SoftwareType,DateUTC
2013-08-07 00:01:00,73.0,68.0,-100.00,North,350,3.0,6.0,85,0.00,,,0.00,0.000000,,2013-08-07 04:01:00,
2013-08-07 00:33:00,71.0,69.0,-100.00,North,352,4.0,5.0,92,0.00,,,0.00,0.000000,,2013-08-07 04:33:00,
2013-08-07 00:43:00,71.0,69.0,-100.00,North,352,4.0,5.0,92,0.00,,,0.00,0.000000,,2013-08-07 04:43:00,
2013-08-07 00:52:00,71.0,69.0,-100.00,North,352,4.0,5.0,92,0.00,,,0.00,0.000000,,2013-08-07 04:52:00,
2013-08-07 01:02:00,71.0,69.0,-100.00,North,352,4.0,5.0,92,0.00,,,0.00,0.000000,,2013-08-07 05:02:00,
2013-08-07 01:32:00,71.0,69.0,-100.00,North,355,5.0,8.0,92,0.00,,,0.00,0.000000,,2013-08-07 05:32:00,
2013-08-07 01:43:00,71.0,69.0,-100.00,North,355,5.0,8.0,92,0.00,,,0.00,0.000000,,2013-08-07 05:43:00,
2013-08-07 01:52:00,71.0,69.0,-100.00,North,355,5.0,8.0,92,0.00,,,0.00,0.000000,,2013-08-07 05:52:00,
2013-08-07 02:02:00,71.0,69.0,-100.00,North,355,5.0,8.0,92,0.00,,,0.00,0.000000,,2013-08-07 06:02:00,
2013-08-07 02:32:00,70.0,69.0,-100.00,NNW,345,4.0,8.0,97,0.00,,,0.00,0.000000,,2013-08-07 06:32:00,
2013-08-07 02:43:00,70.0,69.0,-100.00,NNW,345,4.0,8.0,97,0.00,,,0.00,0.000000,,2013-08-07 06:43:00,
2013-08-07 02:52:00,70.0,69.0,-100.00,NNW,345,4.0,8.0,97,0.00,,,0.00,0.000000,,2013-08-07 06:52:00,
2013-08-07 03:01:00,70.0,69.0,-100.00,NNW,345,4.0,8.0,97,0.00,,,0.00,0.000000,,2013-08-07 07:01:00,
2013-08-07 03:33:00,70.0,69.0,-100.00,NNW,345,4.0,7.0,98,0.00,,,0.00,0.000000,,2013-08-07 07:33:00,
2013-08-07 03:43:00,70.0,69.0,-100.00,NNW,345,4.0,7.0,98,0.00,,,0.00,0.000000,,2013-08-07 07:43:00,
2013-08-07 03:53:00,70.0,69.0,-100.00,NNW,345,4.0,7.0,98,0.00,,,0.00,0.000000,,2013-08-07 07:53:00,
2013-08-07 04:02:00,70.0,69.0,-100.00,NNW,345,4.0,7.0,98,0.00,,,0.00,0.000000,,2013-08-07 08:02:00,
2013-08-07 04:32:00,70.0,69.0,-100.00,North,349,4.0,7.0,98,0.00,,,0.00,0.000000,,2013-08-07 08:32:00,
2013-08-07 04:44:00,70.0,69.0,-100.00,North,349,4.0,7.0,98,0.00,,,0.00,0.000000,,2013-08-07 08:44:00,
2013-08-07 04:53:00,70.0,69.0,-100.00,North,349,4.0,7.0,98,0.00,,,0.00,0.000000,,2013-08-07 08:53:00,
2013-08-07 05:02:00,70.0,69.0,-100.00,North,349,4.0,7.0,98,0.00,,,0.00,0.000000,,2013-08-07 09:02:00,
2013-08-07 05:43:00,71.0,70.0,-100.00,North,351,3.0,5.0,97,0.00,,,0.00,0.000000,,2013-08-07 09:43:00,
2013-08-07 05:54:00,71.0,70.0,-100.00,North,351,3.0,5.0,97,0.00,,,0.00,0.000000,,2013-08-07 09:54:00,
2013-08-07 06:01:00,71.0,70.0,-100.00,North,351,3.0,5.0,97,0.00,,,0.00,0.000000,,2013-08-07 10:01:00,
2013-08-07 06:43:00,70.0,70.0,-100.00,NNW,347,4.0,8.0,99,0.03,,,0.03,0.000000,,2013-08-07 10:43:00,
2013-08-07 06:52:00,70.0,70.0,-100.00,NNW,347,4.0,8.0,99,0.03,,,0.03,0.000000,,2013-08-07 10:52:00,
2013-08-07 07:01:00,70.0,70.0,-100.00,NNW,347,4.0,8.0,99,0.03,,,0.03,0.000000,,2013-08-07 11:01:00,
2013-08-07 07:32:00,70.0,70.0,-100.00,North,352,3.0,7.0,99,0.00,,,0.03,5.000000,,2013-08-07 11:32:00,
2013-08-07 07:43:00,70.0,70.0,-100.00,North,352,3.0,7.0,99,0.00,,,0.03,5.000000,,2013-08-07 11:43:00,
2013-08-07 07:53:00,70.0,70.0,-100.00,North,352,3.0,7.0,99,0.00,,,0.03,5.000000,,2013-08-07 11:53:00,
2013-08-07 08:02:00,70.0,70.0,-100.00,North,352,3.0,7.0,99,0.00,,,0.03,5.000000,,2013-08-07 12:02:00,
2013-08-07 08:33:00,70.0,70.0,-100.00,NNW,343,5.0,7.0,99,0.10,,,0.13,32.000000,,2013-08-07 12:33:00,
2013-08-07 08:43:00,70.0,70.0,-100.00,NNW,343,5.0,7.0,99,0.10,,,0.13,32.000000,,2013-08-07 12:43:00,
2013-08-07 08:52:00,70.0,70.0,-100.00,NNW,343,5.0,7.0,99,0.10,,,0.13,32.000000,,2013-08-07 12:52:00,
2013-08-07 09:02:00,70.0,70.0,-100.00,NNW,343,5.0,7.0,99,0.10,,,0.13,32.000000,,2013-08-07 13:02:00,
2013-08-07 09:44:00,73.0,72.0,-100.00,NNW,348,4.0,9.0,98,0.00,,,0.13,154.000000,,2013-08-07 13:44:00,
2013-08-07 09:53:00,73.0,72.0,-100.00,NNW,348,4.0,9.0,98,0.00,,,0.13,154.000000,,2013-08-07 13:53:00,
2013-08-07 10:02:00,73.0,72.0,-100.00,NNW,348,4.0,9.0,98,0.00,,,0.13,154.000000,,2013-08-07 14:02:00,
2013-08-07 10:33:00,76.0,74.0,-100.00,NNW,343,5.0,9.0,92,0.00,,,0.13,320.000000,,2013-08-07 14:33:00,
2013-08-07 10:43:00,76.0,74.0,-100.00,NNW,343,5.0,9.0,92,0.00,,,0.13,320.000000,,2013-08-07 14:43:00,
2013-08-07 10:52:00,76.0,74.0,-100.00,NNW,343,5.0,9.0,92,0.00,,,0.13,320.000000,,2013-08-07 14:52:00,
2013-08-07 11:02:00,76.0,74.0,-100.00,NNW,343,5.0,9.0,92,0.00,,,0.13,320.000000,,2013-08-07 15:02:00,
2013-08-07 11:33:00,76.0,73.0,-100.00,NNW,346,4.0,11.0,89,0.00,,,0.13,269.000000,,2013-08-07 15:33:00,
2013-08-07 11:43:00,76.0,73.0,-100.00,NNW,346,4.0,11.0,89,0.00,,,0.13,269.000000,,2013-08-07 15:43:00,
2013-08-07 11:53:00,76.0,73.0,-100.00,NNW,346,4.0,11.0,89,0.00,,,0.13,269.000000,,2013-08-07 15:53:00,
2013-08-07 12:02:00,76.0,73.0,-100.00,NNW,346,4.0,11.0,89,0.00,,,0.13,269.000000,,2013-08-07 16:02:00,
2013-08-07 12:33:00,80.0,73.0,-100.00,NNW,346,5.0,13.0,79,0.00,,,0.13,466.000000,,2013-08-07 16:33:00,
2013-08-07 12:43:00,80.0,73.0,-100.00,NNW,346,5.0,13.0,79,0.00,,,0.13,466.000000,,2013-08-07 16:43:00,
2013-08-07 12:53:00,80.0,73.0,-100.00,NNW,346,5.0,13.0,79,0.00,,,0.13,466.000000,,2013-08-07 16:53:00,
2013-08-07 13:02:00,80.0,73.0,-100.00,NNW,346,5.0,13.0,79,0.00,,,0.13,466.000000,,2013-08-07 17:02:00,
2013-08-07 13:33:00,80.0,72.0,-100.00,NNW,345,6.0,13.0,76,0.00,,,0.13,539.000000,,2013-08-07 17:33:00,
2013-08-07 13:43:00,80.0,72.0,-100.00,NNW,345,6.0,13.0,76,0.00,,,0.13,539.000000,,2013-08-07 17:43:00,
2013-08-07 13:52:00,80.0,72.0,-100.00,NNW,345,6.0,13.0,76,0.00,,,0.13,539.000000,,2013-08-07 17:52:00,
2013-08-07 14:02:00,80.0,72.0,-100.00,NNW,345,6.0,13.0,76,0.00,,,0.13,539.000000,,2013-08-07 18:02:00,
2013-08-07 14:32:00,82.0,72.0,-100.00,NNW,347,6.0,12.0,73,0.00,,,0.13,629.000000,,2013-08-07 18:32:00,
2013-08-07 14:43:00,82.0,72.0,-100.00,NNW,347,6.0,12.0,73,0.00,,,0.13,629.000000,,2013-08-07 18:43:00,
2013-08-07 14:52:00,82.0,72.0,-100.00,NNW,347,6.0,12.0,73,0.00,,,0.13,629.000000,,2013-08-07 18:52:00,
2013-08-07 15:01:00,82.0,72.0,-100.00,NNW,347,6.0,12.0,73,0.00,,,0.13,629.000000,,2013-08-07 19:01:00,
2013-08-07 15:44:00,80.0,73.0,-100.00,NNW,340,6.0,12.0,78,0.00,,,0.13,342.000000,,2013-08-07 19:44:00,
2013-08-07 15:53:00,80.0,73.0,-100.00,NNW,340,6.0,12.0,78,0.00,,,0.13,342.000000,,2013-08-07 19:53:00,
2013-08-07 16:02:00,80.0,73.0,-100.00,NNW,340,6.0,12.0,78,0.00,,,0.13,342.000000,,2013-08-07 20:02:00,
2013-08-07 16:43:00,82.0,74.0,-100.00,NNW,343,4.0,10.0,76,0.00,,,0.13,486.000000,,2013-08-07 20:43:00,
2013-08-07 16:52:00,82.0,74.0,-100.00,NNW,343,4.0,10.0,76,0.00,,,0.13,486.000000,,2013-08-07 20:52:00,
2013-08-07 17:01:00,82.0,74.0,-100.00,NNW,343,4.0,10.0,76,0.00,,,0.13,486.000000,,2013-08-07 21:01:00,
2013-08-07 17:43:00,80.0,73.0,-100.00,NNW,340,4.0,10.0,80,0.00,,,0.13,438.000000,,2013-08-07 21:43:00,
2013-08-07 17:52:00,80.0,73.0,-100.00,NNW,340,4.0,10.0,80,0.00,,,0.13,438.000000,,2013-08-07 21:52:00,
2013-08-07 18:01:00,80.0,73.0,-100.00,NNW,340,4.0,10.0,80,0.00,,,0.13,438.000000,,2013-08-07 22:01:00,
2013-08-07 18:32:00,80.0,74.0,-100.00,NNW,348,5.0,10.0,82,0.00,,,0.13,185.000000,,2013-08-07 22:32:00,
2013-08-07 18:43:00,80.0,74.0,-100.00,NNW,348,5.0,10.0,82,0.00,,,0.13,185.000000,,2013-08-07 22:43:00,
2013-08-07 18:52:00,80.0,74.0,-100.00,NNW,348,5.0,10.0,82,0.00,,,0.13,185.000000,,2013-08-07 22:52:00,
2013-08-07 19:01:00,80.0,74.0,-100.00,NNW,348,5.0,10.0,82,0.00,,,0.13,185.000000,,2013-08-07 23:01:00,
2013-08-07 19:43:00,79.0,74.0,-100.00,NNW,344,6.0,10.0,86,0.00,,,-99.99,137.000000,,2013-08-07 23:43:00,
2013-08-07 19:52:00,79.0,74.0,-100.00,NNW,344,6.0,10.0,86,0.00,,,-99.99,137.000000,,2013-08-07 23:52:00,
2013-08-07 20:01:00,79.0,74.0,-100.00,NNW,344,6.0,10.0,86,0.00,,,-99.99,137.000000,,2013-08-08 00:01:00,
2013-08-07 20:32:00,77.0,75.0,-100.00,NNW,348,2.0,8.0,93,0.00,,,0.13,50.000000,,2013-08-08 00:32:00,
2013-08-07 20:43:00,77.0,75.0,-100.00,NNW,348,2.0,8.0,93,0.00,,,0.13,50.000000,,2013-08-08 00:43:00,
2013-08-07 20:52:00,77.0,75.0,-100.00,NNW,348,2.0,8.0,93,0.00,,,0.13,50.000000,,2013-08-08 00:52:00,
2013-08-07 21:02:00,77.0,75.0,-100.00,NNW,348,2.0,8.0,93,0.00,,,0.13,50.000000,,2013-08-08 01:02:00,
2013-08-07 21:32:00,76.0,74.0,-100.00,NNW,345,3.0,6.0,94,0.00,,,0.13,4.000000,,2013-08-08 01:32:00,
2013-08-07 21:43:00,76.0,74.0,-100.00,NNW,345,3.0,6.0,94,0.00,,,0.13,4.000000,,2013-08-08 01:43:00,
2013-08-07 21:52:00,76.0,74.0,-100.00,NNW,345,3.0,6.0,94,0.00,,,0.13,4.000000,,2013-08-08 01:52:00,
2013-08-07 22:02:00,76.0,74.0,-100.00,NNW,345,3.0,6.0,94,0.00,,,0.13,4.000000,,2013-08-08 02:02:00,
2013-08-07 22:32:00,74.0,72.0,-100.00,North,350,4.0,6.0,92,0.00,,,0.13,0.000000,,2013-08-08 02:32:00,
2013-08-07 22:43:00,74.0,72.0,-100.00,North,350,4.0,6.0,92,0.00,,,0.13,0.000000,,2013-08-08 02:43:00,
2013-08-07 22:52:00,74.0,72.0,-100.00,North,350,4.0,6.0,92,0.00,,,0.13,0.000000,,2013-08-08 02:52:00,
2013-08-07 23:02:00,74.0,72.0,-100.00,North,350,4.0,6.0,92,0.00,,,0.13,0.000000,,2013-08-08 03:02:00,
2013-08-07 23:32:00,74.0,72.0,-100.00,North,349,7.0,10.0,94,0.00,,,0.13,0.000000,,2013-08-08 03:32:00,
2013-08-07 23:43:00,74.0,72.0,-100.00,North,349,7.0,10.0,94,0.00,,,0.13,0.000000,,2013-08-08 03:43:00,
2013-08-07 23:52:00,74.0,72.0,-100.00,North,349,7.0,10.0,94,0.00,,,0.13,0.000000,,2013-08-08 03:52:00,